sat.trackr.live / text

‹ back to catalog

STARLINK-31238

NORAD 58853 · 2024-019A

PAYLOAD ACTIVE UNKNOWN

§ Identity

Operator
Country
US
Launch date
2024-01-29
Launch site
AFETR
Launch vehicle
Mass (kg)
RCS (m²)

Purposes: comms

External: N2YO · Heavens-Above · Gunter

§ Orbital elements

Epoch: 2026-05-24T18:58:55.703136Z

Period
94.27 min
Inclination
43.0014°
Eccentricity
0.0001202
Mean motion
15.27572532 rev/d
Perigee alt
482.2 km
Apogee alt
483.9 km
Semi-major
6,861.2 km
B*
-9.9789e-6
RAAN
178.9207°
Arg perigee
283.5869°
Mean anomaly
76.4849°
Rev number
13,072

§ Raw data

STARLINK-312381 58853U 24019A   26144.79092249 -.00000537  00000+0 -99789-5 0  99972 58853  43.0014 178.9207 0001202 283.5869  76.4849 15.27572532130723

JSON: /api/v1/satellites/58853 · /tle

For live sub-satellite position, see the globe view (requires WebGL).

§ Visibility from observer

Set your observer location to see the next 7 days of passes ≥ 10°. The values pass through the URL so the page stays shareable.

No JS? Fill the form by hand. The geolocation button needs JavaScript.